[[{"header":{"parameterUnit":"m.s-1","parameterCategory":1,"la1":30.2991,"la2":30.254,"lo1":-89.0895,"lo2":-89.0444,"dy":0.0017,"dx":0.0017,"nx":28,"ny":28,"refTime":"2024-11-26T09:00:00:Z","depth":0,"parameterNumber":2,"parameterNumberName":"U-component_of_WINDS"},"data":[0,0,0,0,0,0,0,0,0,0,0,0,0,0,0,0,0,0,0,0,0,0,0,0,0,0,0,0,0,0,0,0,0,0,0,0,0,0,0,0,0,0,0,0,0,0,0,0,0,0,0,0,0,0,0,0,0,0,0.6812,0.6812,0,0.6819,0.6819,0.6819,0.6788,0.6787,0.6786,0.6786,0.6791,0.6792,0.6793,0,0,0,0,0,0,0,0,0,0,0,0,0,0.6771,0.6772,0.6812,0.6812,0.6813,0.6819,0.6819,0.6819,0.6788,0.6787,0.6786,0.6785,0.6791,0.6792,0.6793,0,0,0,0,0,0,0,0,0,0,0,0,0,0.6784,0.6772,0.6812,0.6798,0.6797,0.6819,0.6819,0.6819,0.6789,0.6787,0.6786,0.6785,0.6791,0.6792,0.6794,0.683,0,0,0.6798,0.6799,0,0,0,0,0,0,0,0,0.6784,0.6786,0.68,0.6799,0.6798,0.6801,0.6807,0.6823,0.6789,0.6792,0.6786,0.6784,0.6796,0.6797,0.6801,0.683,0.683,0.6798,0.6799,0.68,0.68,0,0,0,0,0,0,0,0.6783,0.6786,0.6815,0.68,0.6799,0.679,0.6791,0.681,0.6801,0.6791,0.6789,0.679,0.6795,0.68,0.6801,0.683,0.6798,0.68,0.68,0.6801,0.6888,0.689,0,0,0,0,0,0,0.6784,0.6785,0.6815,0.6815,0.6787,0.6792,0.6793,0.6802,0.6801,0.6799,0.6791,0.6789,0.6798,0.6799,0.6801,0.6842,0.68,0.6801,0.6802,0.6887,0.6889,0.689,0,0,0,0,0,0,0.6783,0.6787,0.6815,0.6799,0.6802,0.6795,0.6805,0.6802,0.6807,0.6801,0.6799,0.6798,0.6797,0.6799,0.6823,0.6842,0.6802,0.6803,0.6885,0.6887,0.6889,0.6926,0,0,0,0,0,0,0.6782,0.6787,0.6801,0.68,0.6803,0.6837,0.6806,0.6804,0.681,0.6807,0.6807,0.6805,0.6796,0.6821,0.6824,0.6844,0.6804,0.6883,0.6886,0.6889,0.6923,0.693,0.6935,0,0,0,0,0,0.6781,0.6811,0.6802,0.6806,0.6821,0.6838,0.684,0.6828,0.6812,0.6825,0.6821,0.6805,0.684,0.6823,0.6827,0.6847,0.6882,0.6885,0.6889,0.6921,0.6928,0.6935,0,0,0,0,0,0,0.6815,0.6811,0.6801,0.6832,0.6835,0.6833,0.685,0.6837,0.6845,0.6842,0.6827,0.6827,0.6853,0.6853,0.6835,0.6882,0.6858,0.6862,0.6881,0.6888,0.6894,0.6893,0.6806,0,0,0,0,0,0.6826,0.6841,0.6836,0.6864,0.6866,0.6858,0.6865,0.6856,0.6859,0.686,0.6858,0.6861,0.6873,0.688,0.6891,0.6923,0.6922,0.6939,0.6945,0.6949,0.6953,0.6969,0.6976,0.6901,0.6901,0.6901,0,0,0.6849,0.6849,0.6859,0.6871,0.6873,0.6887,0.6859,0.6877,0.6887,0.6863,0.6885,0.6883,0.6886,0.6914,0.6926,0.6914,0.6973,0.6953,0.6957,0.6958,0.6973,0.698,0.6987,0.6903,0.6902,0.6902,0,0,0.6898,0.69,0.6923,0.6925,0.6928,0.6922,0.6928,0.6927,0.6925,0.6947,0.6929,0.6941,0.6961,0.6963,0.6967,0.7017,0.7002,0.702,0.705,0.7066,0.7072,0.7077,0.7094,0.71,0.7024,0.7024,0.7024,0,0.6927,0.6949,0.6936,0.6954,0.696,0.6938,0.6961,0.6964,0.697,0.6974,0.696,0.6985,0.6985,0.7013,0.7025,0.7029,0.7034,0.702,0.7072,0.7077,0.7082,0.7098,0.7104,0.7026,0.7026,0.7026,0.7026,0,0.6983,0.6998,0.7016,0.7023,0.703,0.705,0.704,0.7049,0.7039,0.7035,0.7057,0.7056,0.7066,0.7072,0.7062,0.7098,0.709,0.7075,0.7051,0.7092,0.7106,0.7112,0.703,0.7029,0.7028,0.7028,0,0,0.7054,0.7053,0.7059,0.7062,0.7063,0.7075,0.7093,0.7103,0.711,0.7115,0.713,0.7147,0.7133,0.7137,0.7128,0.7142,0.718,0.7124,0.7124,0.7134,0.7218,0.7229,0.7237,0.717,0.7171,0.7172,0.7218,0,0.7101,0.7134,0.7123,0.7156,0.7169,0.7149,0.7165,0.7167,0.7163,0.7174,0.7169,0.7181,0.7162,0.7164,0.7177,0.7172,0.7196,0.7169,0.7183,0.7184,0.7183,0.7245,0.7257,0.73,0.7223,0.7224,0.7225,0,0.7161,0.7169,0.7203,0.7201,0.7206,0.7221,0.7228,0.7239,0.7241,0.7237,0.7241,0.7229,0.7246,0.7222,0.7246,0.7228,0.7233,0.7231,0.7233,0.7233,0.7207,0.7246,0.7313,0.7319,0.7234,0.7233,0.7233,0,0.7209,0.7227,0.7249,0.7252,0.7251,0.7262,0.7262,0.7262,0.7268,0.7274,0.7278,0.7286,0.729,0.7297,0.7286,0.727,0.7311,0.7287,0.7308,0.7308,0.7317,0.7316,0.7385,0.7321,0.7321,0.7321,0.7321,0,0.7263,0.7284,0.727,0.7284,0.7307,0.7294,0.7317,0.7315,0.7316,0.7328,0.7311,0.7323,0.7309,0.7319,0.7311,0.7332,0.7334,0.7331,0.7328,0.7332,0.7332,0.7335,0.7331,0.7323,0.7322,0.7322,0.7322,0,0.7319,0.7311,0.7334,0.7331,0.7331,0.7348,0.7345,0.7357,0.7352,0.7368,0.7371,0.7362,0.7374,0.7364,0.7375,0.7369,0.7396,0.739,0.7396,0.7394,0.7415,0.7413,0.7487,0.7496,0.7427,0.7428,0.7429,0,0.7354,0.737,0.7368,0.7376,0.7377,0.7389,0.7395,0.7382,0.7389,0.7392,0.7404,0.7414,0.7421,0.744,0.7434,0.7443,0.7436,0.7461,0.7437,0.744,0.7435,0.7434,0.7435,0.7466,0.7467,0.7468,0.7468,0,0.7416,0.7411,0.742,0.7428,0.7436,0.7441,0.7445,0.7452,0.7439,0.7448,0.7459,0.7465,0.7476,0.7486,0.7492,0.7491,0.7478,0.7476,0.7481,0.7485,0.7487,0.7485,0.7409,0.7474,0.7473,0.7473,0.7473,0.7472,0.7462,0.7475,0.7476,0.7486,0.7488,0.7492,0.7503,0.7499,0.7509,0.7517,0.7509,0.7523,0.7523,0.7531,0.7532,0.7542,0.7531,0.7539,0.7541,0.7542,0.7545,0.7486,0.7543,0.7543,0.7543,0.7542,0.7542,0,0.7522,0.7522,0.7532,0.7538,0.7546,0.7533,0.7536,0.7544,0.7556,0.7558,0.7566,0.7579,0.7588,0.7583,0.7591,0.76,0.7594,0.7603,0.7602,0.7602,0.7555,0.7549,0.7608,0.7608,0.7608,0.7608,0.7608,0.7608,0.7554,0.7575,0.757,0.7592,0.7591,0.7604,0.7607,0.7611,0.7612,0.7627,0.7635,0.7632,0.7631,0.7639,0.7647,0.7645,0.7648,0.7659,0.7655,0.7611,0.7605,0.7599,0.7593,0.766,0.766,0.7701,0.7702,0.7702]},{"header":{"parameterUnit":"m.s-1","parameterCategory":1,"la1":30.2991,"la2":30.254,"lo1":-89.0895,"lo2":-89.0444,"dy":0.0017,"dx":0.0017,"nx":28,"ny":28,"refTime":"2024-11-26T09:00:00:Z","depth":0,"parameterNumber":3,"parameterNumberName":"V-component_of_WINDS"},"data":[0,0,0,0,0,0,0,0,0,0,0,0,0,0,0,0,0,0,0,0,0,0,0,0,0,0,0,0,0,0,0,0,0,0,0,0,0,0,0,0,0,0,0,0,0,0,0,0,0,0,0,0,0,0,0,0,0,0,5.8401,5.8402,0,5.8447,5.8447,5.8448,5.8379,5.8376,5.8374,5.8372,5.8413,5.8416,5.842,0,0,0,0,0,0,0,0,0,0,0,0,0,5.8248,5.8251,5.8401,5.8402,5.8402,5.8447,5.8448,5.8448,5.8379,5.8376,5.8373,5.8371,5.8412,5.8416,5.842,0,0,0,0,0,0,0,0,0,0,0,0,0,5.8306,5.8252,5.8401,5.8373,5.8371,5.8447,5.8448,5.8448,5.838,5.8376,5.8373,5.8369,5.8411,5.8416,5.842,5.8523,0,0,5.8436,5.8438,0,0,0,0,0,0,0,0,5.8303,5.8312,5.8377,5.8375,5.8373,5.8404,5.8409,5.8473,5.8381,5.8376,5.8372,5.8368,5.8412,5.8417,5.8433,5.8525,5.8527,5.8436,5.8439,5.8441,5.8443,0,0,0,0,0,0,0,5.8299,5.8309,5.8419,5.8378,5.8376,5.8357,5.8361,5.842,5.8414,5.8377,5.8372,5.8378,5.8411,5.8429,5.8434,5.8528,5.8436,5.844,5.8444,5.8446,5.8705,5.8709,0,0,0,0,0,0,5.8299,5.8306,5.8417,5.842,5.8329,5.8362,5.8367,5.8397,5.8413,5.8412,5.8381,5.8375,5.8422,5.8428,5.8435,5.8556,5.8441,5.8446,5.8449,5.8702,5.8706,5.8711,0,0,0,0,0,0,5.8296,5.831,5.8416,5.8362,5.8374,5.8369,5.8403,5.84,5.8418,5.8417,5.8415,5.8401,5.8419,5.8428,5.8502,5.8557,5.8448,5.8453,5.8697,5.8703,5.8708,5.88,0,0,0,0,0,0,5.8292,5.8309,5.8349,5.8364,5.8377,5.8484,5.8407,5.8404,5.8428,5.842,5.8435,5.8434,5.8417,5.8495,5.8507,5.8562,5.8457,5.8692,5.87,5.8707,5.8792,5.8808,5.8822,0,0,0,0,0,5.8287,5.8372,5.8352,5.8365,5.8428,5.8487,5.8495,5.8476,5.8432,5.8472,5.8471,5.8434,5.8549,5.8503,5.8516,5.8573,5.8688,5.8697,5.8706,5.8785,5.8805,5.8822,0,0,0,0,0,0,5.8362,5.8373,5.8351,5.8444,5.8466,5.8476,5.8525,5.8497,5.853,5.8521,5.8493,5.8497,5.8577,5.8582,5.8531,5.8673,5.8611,5.8623,5.8667,5.8686,5.87,5.8697,5.8461,0,0,0,0,0,5.8389,5.8439,5.8445,5.8526,5.8539,5.853,5.8555,5.8539,5.8559,5.8567,5.8572,5.8591,5.8632,5.8659,5.8696,5.8792,5.8794,5.8838,5.8853,5.8865,5.8875,5.8926,5.8946,5.8739,5.8739,5.8739,0,0,5.8446,5.8459,5.8491,5.8542,5.8557,5.8606,5.8538,5.8594,5.863,5.8575,5.8646,5.865,5.867,5.8756,5.8793,5.8762,5.8933,5.8876,5.8886,5.889,5.8937,5.8957,5.8974,5.8745,5.8744,5.8743,0,0,5.8576,5.8591,5.866,5.8677,5.8701,5.8695,5.8712,5.8727,5.8728,5.8799,5.8759,5.88,5.8871,5.8887,5.8904,5.9041,5.9007,5.9054,5.9132,5.9182,5.9198,5.9212,5.926,5.9278,5.9064,5.9064,5.9064,0,5.8643,5.8719,5.8699,5.8758,5.8781,5.8736,5.8805,5.8821,5.8855,5.8871,5.8836,5.8925,5.8935,5.9024,5.9057,5.9073,5.909,5.9051,5.9198,5.9212,5.9225,5.927,5.9288,5.907,5.9069,5.9068,5.9068,0,5.88,5.8853,5.8906,5.8943,5.8971,5.9035,5.9023,5.9054,5.9035,5.9032,5.9105,5.9116,5.9155,5.9174,5.9155,5.9261,5.924,5.9202,5.9139,5.925,5.9292,5.931,5.9077,5.9075,5.9074,5.9072,0,0,5.8977,5.9003,5.9023,5.9039,5.9063,5.9102,5.9163,5.9203,5.923,5.9255,5.9305,5.9366,5.9331,5.9351,5.9333,5.9377,5.9484,5.9333,5.9333,5.9361,5.96,5.9629,5.9649,5.9462,5.9466,5.9468,5.9598,0,5.9106,5.9214,5.9199,5.9302,5.935,5.9308,5.9361,5.938,5.9379,5.9418,5.9416,5.946,5.941,5.9422,5.9464,5.9463,5.9532,5.9453,5.9507,5.9509,5.9503,5.9672,5.9702,5.9824,5.9615,5.9618,5.962,0,5.9271,5.9305,5.9414,5.9431,5.945,5.9498,5.9534,5.9572,5.9592,5.9588,5.9612,5.9586,5.9645,5.9582,5.9663,5.9609,5.963,5.9633,5.9637,5.9641,5.9571,5.9679,5.9862,5.9881,5.9645,5.9643,5.9642,0,5.939,5.9462,5.9536,5.9551,5.9573,5.9608,5.9617,5.9635,5.966,5.969,5.9706,5.9742,5.9761,5.9789,5.9773,5.9729,5.9857,5.9792,5.9854,5.9854,5.9882,5.988,6.0071,5.9896,5.9896,5.9896,5.9895,0,5.9535,5.9603,5.959,5.9636,5.971,5.9691,5.9764,5.9769,5.9785,5.9829,5.9794,5.9836,5.9813,5.9853,5.9841,5.991,5.9918,5.9916,5.9912,5.9919,5.9919,5.9932,5.9923,5.9901,5.99,5.9899,5.9898,0,5.968,5.9674,5.9752,5.9767,5.9772,5.9826,5.9837,5.9879,5.9876,5.9933,5.9945,5.9939,5.9984,5.9972,6.002,6.0012,6.0098,6.0083,6.0092,6.0088,6.0151,6.0145,6.0355,6.0382,6.0191,6.0193,6.0194,0,5.9773,5.9825,5.9845,5.9874,5.9887,5.9933,5.996,5.9942,5.997,5.9997,6.0036,6.0079,6.0112,6.0186,6.0185,6.0221,6.0207,6.0278,6.0212,6.0218,6.0207,6.0205,6.0209,6.0291,6.0293,6.0295,6.0296,0,5.9939,5.9934,5.9974,6.0014,6.0046,6.0076,6.0102,6.0127,6.011,6.0144,6.0191,6.0217,6.0267,6.031,6.0343,6.0351,6.0321,6.0317,6.0334,6.0341,6.0344,6.0343,6.0128,6.0312,6.0311,6.031,6.0309,6.0308,6.006,6.0105,6.0127,6.0172,6.0191,6.0216,6.0256,6.0259,6.0299,6.034,6.0326,6.038,6.0398,6.0441,6.0453,6.0494,6.0466,6.049,6.0496,6.0502,6.051,6.0339,6.05,6.0499,6.0499,6.0499,6.0498,0,6.0224,6.0237,6.0279,6.0318,6.0354,6.0325,6.0352,6.0383,6.0432,6.0453,6.0487,6.054,6.0582,6.0584,6.0622,6.0654,6.0641,6.0665,6.0662,6.0664,6.0532,6.0514,6.0675,6.0675,6.0675,6.0675,6.0675,6.0674,6.0314,6.0387,6.0385,6.0466,6.0477,6.0532,6.055,6.0572,6.0589,6.0652,6.0686,6.0689,6.0702,6.0741,6.0777,6.0776,6.0791,6.082,6.0815,6.0691,6.0673,6.0657,6.064,6.0824,6.0824,6.0943,6.0944,6.0945]}]]